Change the Weather History Date:

Tuesday, November 27, 2012

  Actual Average (PAHP) Record (PAHP)
Temperature  
Mean Temperature 18 °F -  
Max Temperature 21 °F 17 °F 39 °F (2003)
Min Temperature 15 °F 9 °F -11 °F (2011)
Degree Days  
Heating Degree Days 47    
Moisture  
Dew Point 15 °F    
Average Humidity 83    
Maximum Humidity 93    
Minimum Humidity 78    
Precipitation  
Precipitation 0.00 in - - ()
Sea Level Pressure  
Sea Level Pressure 30.08 in    
Wind  
Wind Speed 19 mph (ENE)    
Max Wind Speed 24 mph    
Max Gust Speed 29 mph    
Averages and records for this station are not official NWS values.
T = Trace of Precipitation, MM = Missing Value Source: NWS Daily Summary

Daily Weather History Graph

Daily Weather History Graph

Search for Another Location

Airport or City:

Trip Planner

Search our weather history database for the weather conditions in past years. The results will help you decide how hot, cold, wet, or windy it might be!

Date:

Astronomy

Nov. 27, 2012 Rise Set
Actual Time 10:43 AM AKST 4:56 PM AKST
Civil Twilight 9:45 AM AKST 5:54 PM AKST
Nautical Twilight 8:48 AM AKST 6:51 PM AKST
Astronomical Twilight 7:55 AM AKST 7:44 PM AKST
Moon 4:40 PM AKST (11/27) 9:54 AM AKST (11/27)
Length of Visible Light 8h 08m
Length of Day
6h 12m
Full, 100% of the Moon is Illuminated
Nov 27
Full
Nov 28
Full
Dec 6
Last Quarter
Dec 12
New
Dec 19
First Quarter

Hourly Weather History & Observations

Time (AKST) Temp. Windchill Dew Point Humidity Pressure Visibility Wind Dir Wind Speed Gust Speed Precip Events Conditions
12:07 AM 15.8 °F -1.1 °F 12.2 °F 86% 29.87 in - East 19.6 mph - N/A   Mostly Cloudy
12:57 AM 16.0 °F -2.5 °F 12.0 °F 84% 29.87 in - East 24.2 mph - N/A   Overcast
1:08 AM 17.6 °F -0.3 °F 12.2 °F 79% 29.87 in - East 24.2 mph - N/A   Mostly Cloudy
1:15 AM 17.6 °F -0.3 °F 12.2 °F 79% 29.86 in - East 24.2 mph - N/A   Mostly Cloudy
1:20 AM 17.6 °F 0.1 °F 12.2 °F 79% 29.87 in - East 23.0 mph - N/A   Mostly Cloudy
1:57 AM 16.0 °F -2.1 °F 12.0 °F 84% 29.87 in - East 23.0 mph - N/A   Overcast
2:07 AM 17.6 °F 0.5 °F 12.2 °F 79% 29.86 in - East 21.9 mph - N/A   Overcast
2:57 AM 18.0 °F 0.9 °F 12.9 °F 81% 29.87 in - East 21.9 mph - N/A   Overcast
3:57 AM 19.0 °F 2.7 °F 15.1 °F 85% 29.89 in - East 20.7 mph - N/A   Overcast
4:57 AM 21.0 °F 4.3 °F 16.0 °F 81% 29.90 in - East 24.2 mph - N/A   Overcast
5:33 AM 19.4 °F 2.5 °F 15.8 °F 86% 29.90 in - East 23.0 mph - N/A   Overcast
5:48 AM 21.2 °F 4.9 °F 15.8 °F 80% 29.91 in - East 23.0 mph - N/A   Overcast
6:12 AM 21.2 °F 4.5 °F 15.8 °F 80% 29.92 in - East 24.2 mph - N/A   Overcast
6:43 AM 19.4 °F 2.8 °F 15.8 °F 86% 29.94 in - East 21.9 mph - N/A   Overcast
6:57 AM 19.9 °F 3.9 °F 16.0 °F 85% 29.96 in - ENE 20.7 mph - N/A   Overcast
7:57 AM 19.0 °F 2.0 °F 14.0 °F 81% 29.99 in - East 23.0 mph 28.8 mph N/A   Overcast
8:57 AM 19.9 °F 4.3 °F 15.1 °F 81% 30.02 in - ENE 19.6 mph - N/A   Overcast
9:57 AM 19.0 °F 2.0 °F 14.0 °F 81% 30.06 in - East 23.0 mph - N/A   Overcast
10:44 AM 19.4 °F 4.1 °F 15.8 °F 86% 30.08 in - East 18.4 mph - N/A   Overcast
10:57 AM 19.9 °F 5.7 °F 15.1 °F 81% 30.11 in - East 16.1 mph - N/A   Overcast
11:08 AM 19.4 °F 4.5 °F 15.8 °F 86% 30.10 in - East 17.3 mph - N/A   Overcast
11:19 AM 19.4 °F 4.5 °F 15.8 °F 86% 30.10 in - ENE 17.3 mph - N/A   Overcast
11:26 AM 19.4 °F 4.5 °F 15.8 °F 86% 30.11 in - ENE 17.3 mph - N/A   Overcast
11:57 AM 19.9 °F 4.8 °F 15.1 °F 81% 30.13 in - East 18.4 mph - N/A   Overcast
12:57 PM 19.9 °F 6.2 °F 16.0 °F 85% 30.16 in - East 15.0 mph - N/A   Overcast
1:25 PM 19.4 °F 5.0 °F 15.8 °F 86% 30.15 in - East 16.1 mph - N/A   Mostly Cloudy
1:37 PM 19.4 °F 7.2 °F 15.8 °F 86% 30.17 in - East 11.5 mph - N/A   Mostly Cloudy
1:57 PM 19.9 °F 7.9 °F 16.0 °F 85% 30.18 in - East 11.5 mph - N/A   Overcast
2:57 PM 21.0 °F 12.4 °F 16.0 °F 81% 30.21 in - ENE 6.9 mph - N/A   Overcast
3:57 PM 19.9 °F 8.6 °F 16.0 °F 85% 30.22 in - ENE 10.4 mph - N/A   Overcast
4:11 PM 19.4 °F 7.9 °F 17.6 °F 93% 30.21 in - ENE 10.4 mph - N/A   Overcast
4:57 PM 19.9 °F 9.3 °F 17.1 °F 89% 30.26 in - NNE 9.2 mph - N/A   Overcast
5:57 PM 21.0 °F 10.6 °F 18.0 °F 88% 30.28 in - ENE 9.2 mph - N/A   Overcast
6:57 PM 21.9 °F 17.2 °F 17.1 °F 82% 30.31 in - North 3.5 mph - N/A   Partly Cloudy
7:57 PM 21.0 °F 12.4 °F 17.1 °F 85% 30.33 in - NNW 6.9 mph - N/A   Mostly Cloudy
8:57 PM 21.9 °F 12.5 °F 17.1 °F 82% 30.33 in - ENE 8.1 mph - N/A   Scattered Clouds
9:57 PM 21.9 °F 15.7 °F 17.1 °F 82% 30.35 in - WNW 4.6 mph - N/A   Mostly Cloudy
10:57 PM 21.9 °F 15.7 °F 16.0 °F 78% 30.36 in - WNW 4.6 mph - N/A   Mostly Cloudy
11:57 PM 21.9 °F 17.2 °F 18.0 °F 85% 30.36 in - West 3.5 mph - N/A   Overcast